sat.trackr.live / text

‹ back to catalog

STARLINK-36723

NORAD 67915 · 2026-036M

PAYLOAD ACTIVE UNKNOWN

§ Identity

Operator
Country
US
Launch date
2026-02-22
Launch site
AFETR
Launch vehicle
Mass (kg)
RCS (m²)

Purposes: comms

External: N2YO · Heavens-Above · Gunter

§ Orbital elements

Epoch: 2026-09-19T07:11:42.164448Z

Period
94.27 min
Inclination
43.0035°
Eccentricity
0.0001234
Mean motion
15.27586613 rev/d
Perigee alt
482.2 km
Apogee alt
483.9 km
Semi-major
6,861.2 km
B*
3.3522e-4
RAAN
231.7278°
Arg perigee
265.5253°
Mean anomaly
94.5457°
Rev number
3,333

§ Raw data

STARLINK-367231 67915U 26036M   26262.29979357  .00008976  00000+0  33522-3 0  99912 67915  43.0035 231.7278 0001234 265.5253  94.5457 15.27586613 33333

JSON: /api/v1/satellites/67915 · /tle

For live sub-satellite position, see the globe view (requires WebGL).

§ Visibility from observer

Set your observer location to see the next 7 days of passes ≥ 10°. The values pass through the URL so the page stays shareable.

No JS? Fill the form by hand. The geolocation button needs JavaScript.